Date String (YYYY-MM-DD hh:mm:ss) UTC,Instrument flags,Ambient pressure (hPa),Sample flow (lpm),Bypass flow (lpm),Sample temperature (°C),Ambient temperature (°C),ASC tube jacket temperature (°C),LED temperature (°C),Box temperature (°C),Sample RH (%),Span deviation,Mass concentration (μg/m³),Mass concentration (μg/m³),Mass concentration (μg/m³)
DateTimeUTC,F1_M11,P_M11,Q1_M11,Q2_M11,T1_M11,T2_M11,T3_M11,T4_M11,T5_M11,U1_M11,ZSPAN_M11,X2_M11,X0_M11,X1_M11
2022-04-23 11:00:00,,0809.0,4.99,0.00,24.1,23.2,00.0,33.1,25.7,12.4,0000.0,0000.36,0002.56,0000.06
2022-04-23 11:01:00,,0808.9,5.01,0.00,24.1,23.2,00.0,33.1,25.8,12.5,0000.0,0000.36,0002.61,0000.06
2022-04-23 11:02:00,,0808.9,5.00,0.00,24.1,23.2,00.0,33.1,25.8,12.6,0000.0,0000.33,0002.64,0000.05
2022-04-23 11:03:00,,0809.0,4.99,0.00,24.1,23.1,00.0,33.1,25.7,12.5,0000.0,0000.33,0002.57,0000.05
2022-04-23 11:04:00,,0809.2,5.01,0.00,24.1,23.1,00.0,33.1,25.6,12.4,0000.0,0000.34,0002.59,0000.05
2022-04-23 11:05:00,,0809.2,5.00,0.00,24.0,23.0,00.0,33.1,25.6,12.5,0000.0,0000.33,0002.63,0000.05
2022-04-23 11:06:00,,0809.1,5.00,0.00,24.0,23.0,00.0,33.1,25.7,12.5,0000.0,0000.35,0002.67,0000.05
2022-04-23 11:07:00,,0809.1,4.99,0.00,24.0,23.0,00.0,33.1,25.7,12.2,0000.0,0000.34,0002.68,0000.05
2022-04-23 11:08:00,,0809.0,5.02,0.00,24.0,23.0,00.0,33.1,25.7,12.2,0000.0,0000.30,0001.63,0000.06
2022-04-23 11:09:00,,0809.2,4.99,0.00,24.0,23.0,00.0,33.1,25.7,12.2,0000.0,0000.28,0001.32,0000.06
2022-04-23 11:10:00,,0809.3,5.01,0.00,24.0,23.0,00.0,33.1,25.7,12.3,0000.0,0000.29,0001.30,0000.06
2022-04-23 11:11:00,,0809.3,5.01,0.00,24.0,22.9,00.0,33.1,25.7,12.3,0000.0,0000.32,0001.04,0000.06
2022-04-23 11:12:00,,0809.2,5.00,0.00,24.0,23.0,00.0,33.1,25.8,12.1,0000.0,0000.32,0001.85,0000.06
2022-04-23 11:13:00,,0809.3,4.99,0.00,24.1,23.0,00.0,33.1,25.8,12.1,0000.0,0000.31,0001.81,0000.06
2022-04-23 11:14:00,,0809.4,5.01,0.00,24.0,22.9,00.0,33.1,25.7,12.2,0000.0,0000.32,0002.00,0000.06
2022-04-23 11:15:00,,0809.3,4.99,0.00,24.0,22.9,00.0,33.1,25.7,12.0,0000.0,0000.34,0002.49,0000.06
2022-04-23 11:16:00,,0809.4,5.01,0.00,24.0,22.9,00.0,33.1,25.7,12.1,0000.0,0000.33,0002.46,0000.06
2022-04-23 11:17:00,,0809.4,5.00,0.00,24.0,22.9,00.0,33.0,25.7,12.1,0000.0,0000.29,0002.39,0000.06
2022-04-23 11:18:00,,0809.2,5.01,0.00,24.0,22.9,00.0,33.0,25.8,11.9,0000.0,0000.29,0002.37,0000.06
2022-04-23 11:19:00,,0809.3,5.01,0.00,24.0,22.9,00.0,33.0,25.9,11.8,0000.0,0000.28,0002.31,0000.06
2022-04-23 11:20:00,,0809.3,4.98,0.00,24.0,22.9,00.0,33.0,25.8,12.0,0000.0,0000.34,0002.52,0000.05
2022-04-23 11:21:00,,0809.2,5.02,0.00,24.0,22.9,00.0,33.0,25.7,11.7,0000.0,0000.35,0002.54,0000.05
2022-04-23 11:22:00,,0809.3,5.00,0.00,24.0,22.9,00.0,33.0,25.7,11.4,0000.0,0000.32,0002.43,0000.05
2022-04-23 11:23:00,,0809.4,5.00,0.00,24.0,22.9,00.0,33.0,25.7,11.5,0000.0,0000.31,0001.64,0000.05
2022-04-23 11:24:00,,0809.6,5.01,0.00,24.0,22.9,00.0,33.0,25.7,11.4,0000.0,0000.33,0001.49,0000.05
2022-04-23 11:25:00,,0809.7,5.00,0.00,24.0,22.9,00.0,33.0,25.7,11.5,0000.0,0000.35,0001.32,0000.05
2022-04-23 11:26:00,,0809.6,4.99,0.00,24.0,22.8,00.0,33.0,25.6,11.6,0000.0,0000.31,0000.80,0000.05
2022-04-23 11:27:00,,0809.6,5.00,0.00,23.9,22.8,00.0,33.0,25.6,11.7,0000.0,0000.35,0002.24,0000.05
2022-04-23 11:28:00,,0809.4,4.99,0.00,23.9,22.8,00.0,33.0,25.6,11.7,0000.0,0000.41,0003.25,0000.05
2022-04-23 11:29:00,,0809.3,5.00,0.00,23.9,22.9,00.0,33.0,25.6,11.3,0000.0,0000.43,0003.32,0000.05
2022-04-23 11:30:00,,0809.5,5.00,0.00,23.9,22.9,00.0,33.0,25.6,11.4,0000.0,0000.45,0003.42,0000.05
2022-04-23 11:31:00,,0809.4,4.99,0.00,23.9,22.9,00.0,33.0,25.6,11.3,0000.0,0000.39,0003.27,0000.05
2022-04-23 11:32:00,,0809.3,5.03,0.00,23.9,22.8,00.0,33.0,25.6,11.0,0000.0,0000.37,0003.30,0000.05
2022-04-23 11:33:00,,0809.4,5.00,0.00,23.9,22.9,00.0,33.0,25.6,11.1,0000.0,0000.37,0003.38,0000.05
2022-04-23 11:34:00,,0809.3,4.99,0.00,23.9,22.8,00.0,33.0,25.6,11.0,0000.0,0000.38,0003.49,0000.05
2022-04-23 11:35:00,,0809.5,4.99,0.00,24.0,22.9,00.0,33.0,25.7,11.0,0000.0,0000.37,0004.23,0000.04
2022-04-23 11:36:00,,0809.4,5.01,0.00,24.0,22.9,00.0,33.0,25.7,11.0,0000.0,0000.35,0004.44,0000.04
2022-04-23 11:37:00,,0809.4,5.00,0.00,24.0,22.9,00.0,33.0,25.7,11.0,0000.0,0000.35,0004.67,0000.04
2022-04-23 11:38:00,,0809.3,4.99,0.00,24.0,22.9,00.0,33.0,25.6,11.0,0000.0,0000.30,0003.35,0000.04
2022-04-23 11:39:00,,0809.3,5.02,0.00,24.0,22.9,00.0,33.0,25.7,11.1,0000.0,0000.26,0002.66,0000.04
2022-04-23 11:40:00,,0809.2,5.00,0.00,24.0,22.9,00.0,33.0,25.7,11.1,0000.0,0000.27,0003.22,0000.05
2022-04-23 11:41:00,,0809.3,4.99,0.00,24.0,22.9,00.0,33.0,25.6,11.1,0000.0,0000.32,0003.34,0000.06
2022-04-23 11:42:00,,0809.3,4.99,0.00,24.0,22.9,00.0,33.0,25.6,11.1,0000.0,0000.38,0003.82,0000.06
2022-04-23 11:43:00,,0809.2,5.01,0.00,24.0,22.9,00.0,33.0,25.7,11.2,0000.0,0000.46,0004.51,0000.07
2022-04-23 11:44:00,,0809.2,4.99,0.00,24.0,22.9,00.0,33.0,25.7,11.1,0000.0,0000.49,0004.54,0000.07
2022-04-23 11:45:00,,0809.2,4.99,0.00,24.0,22.9,00.0,33.0,25.7,11.2,0000.0,0000.53,0004.79,0000.07
2022-04-23 11:46:00,,0809.2,4.99,0.00,23.9,22.9,00.0,33.0,25.7,11.3,0000.0,0000.55,0004.46,0000.07
2022-04-23 11:47:00,,0809.1,5.01,0.00,23.9,22.8,00.0,32.9,25.6,11.3,0000.0,0000.55,0004.35,0000.07
2022-04-23 11:48:00,,0809.0,4.98,0.00,23.9,22.8,00.0,32.9,25.6,11.2,0000.0,0000.58,0004.17,0000.08
2022-04-23 11:49:00,,0809.1,5.01,0.00,23.9,22.8,00.0,32.9,25.6,11.2,0000.0,0000.60,0004.07,0000.09
2022-04-23 11:50:00,,0809.0,5.01,0.00,23.9,22.8,00.0,32.9,25.6,11.3,0000.0,0000.60,0004.27,0000.08
2022-04-23 11:51:00,,0809.1,4.99,0.00,23.8,22.8,00.0,32.9,25.6,11.3,0000.0,0000.61,0004.78,0000.08
2022-04-23 11:52:00,,0809.3,5.01,0.00,23.8,22.7,00.0,32.9,25.5,11.5,0000.0,0000.63,0005.53,0000.07
2022-04-23 11:53:00,,0809.4,5.00,0.00,23.8,22.7,00.0,32.9,25.5,11.5,0000.0,0000.59,0005.30,0000.07
2022-04-23 11:54:00,,0809.5,4.99,0.00,23.8,22.7,00.0,32.9,25.4,11.5,0000.0,0000.54,0004.92,0000.07
2022-04-23 11:55:00,,0809.5,5.00,0.00,23.8,22.7,00.0,32.9,25.5,11.5,0000.0,0000.54,0006.56,0000.07
2022-04-23 11:56:00,,0809.6,5.00,0.00,23.8,22.7,00.0,32.8,25.4,11.5,0000.0,0000.51,0006.78,0000.08
2022-04-23 11:57:00,,0809.2,5.01,0.00,23.7,22.7,00.0,32.8,25.4,11.4,0000.0,0000.48,0006.22,0000.08
2022-04-23 11:58:00,,0809.4,5.00,0.00,23.7,22.7,00.0,32.8,25.4,11.3,0000.0,0000.50,0006.24,0000.09
2022-04-23 11:59:00,,0809.3,4.99,0.00,23.7,22.6,00.0,32.8,25.4,11.5,0000.0,0000.49,0006.15,0000.08
